Tracking 18673 objects as of 27-June-2017
HD Live streaming from Space Station
objects crossing your sky now

INTELSAT 605

Track INTELSAT 605 now!
INTELSAT 605 is classified as:


NORAD ID: 21653
Int'l Code: 1991-055A
Perigee: 36,049.3 km
Apogee: 36,073.4 km
Inclination: 10.1 °
Period: 1,449.8 minutes
Semi major axis: 42432 km
RCS: 0.754 m2 (medium)
Launch date: August 14, 1991
Source: International Telecommunications Satellite Organization (ITSO)
Launch site: FRENCH GUIANA (FRGUI)

Inclined orbit; 64 C-band, 24 Ku-band; Broadcasting, business services, direct-to-home TV broadcasting, telecommunications, VSAT networks; Atlantic Ocean region.
Your satellite tracking list
Your tracking list is empty





NASA's NSSDC Master Catalog

Two Line Element Set (TLE):
1 21653U 91055A   17177.92437365 -.00000247 +00000-0 +00000-0 0  9993
2 21653 010.1318 040.8727 0002842 200.6174 119.3409 00.99324795094375
Source of the keplerian elements: AFSPC